| time (UTC) | temp C | wind direction | speed KPH | gust KPH | rain 1hr cm | rain 24hr cm | rain mn cm | humidity % | barometer mb |
| 20260510061958 | 6 | 136 | 1.6 | 9.7 | 0.00 | 0.00 | 0.00 | 61 | 1011.5 |
| 20260510061459 | 6 | 65 | 0.0 | 9.7 | 0.00 | 0.00 | 0.00 | 60 | 1011.6 |
| 20260510060958 | 6 | 137 | 0.0 | 3.2 | 0.00 | 0.00 | 0.00 | 60 | 1011.4 |
| 20260510060458 | 6 | 140 | 1.6 | 9.7 | 0.00 | 0.00 | 0.00 | 60 | 1011.3 |
| 20260510060000 | 6 | 74 | 1.6 | 9.7 | 0.00 | 0.00 | 0.00 | 60 | 1011.4 |
| 20260510055459 | 6 | 245 | 1.6 | 9.7 | 0.00 | 0.00 | 0.00 | 60 | 1011.4 |
| 20260510054958 | 6 | 56 | 1.6 | 8.0 | 0.00 | 0.00 | 0.00 | 60 | 1011.2 |
| 20260510054458 | 6 | 79 | 1.6 | 8.0 | 0.00 | 0.00 | 0.00 | 60 | 1011.1 |
| 20260510053958 | 6 | 355 | 1.6 | 6.4 | 0.00 | 0.00 | 0.00 | 60 | 1011.1 |
| 20260510053500 | 7 | 60 | 3.2 | 6.4 | 0.00 | 0.00 | 0.00 | 60 | 1011.0 |
| 20260510052958 | 7 | 70 | 1.6 | 6.4 | 0.00 | 0.00 | 0.00 | 61 | 1010.8 |
| 20260510052459 | 7 | 72 | 0.0 | 3.2 | 0.00 | 0.00 | 0.00 | 60 | 1010.7 |
| 20260510051958 | 7 | 69 | 0.0 | 8.0 | 0.00 | 0.00 | 0.00 | 60 | 1010.6 |
| 20260510051458 | 7 | 59 | 0.0 | 8.0 | 0.00 | 0.00 | 0.00 | 59 | 1010.5 |
| 20260510051000 | 7 | 74 | 1.6 | 8.0 | 0.00 | 0.00 | 0.00 | 59 | 1010.4 |
| 20260510050459 | 7 | 68 | 1.6 | 8.0 | 0.00 | 0.00 | 0.00 | 58 | 1010.3 |
| 20260510050001 | 8 | 22 | 0.0 | 3.2 | 0.00 | 0.00 | 0.00 | 58 | 1010.2 |
| 20260510045500 | 8 | 47 | 1.6 | 4.8 | 0.00 | 0.00 | 0.00 | 58 | 1010.0 |
| 20260510044959 | 8 | 46 | 0.0 | 4.8 | 0.00 | 0.00 | 0.00 | 57 | 1009.7 |
| 20260510044500 | 8 | 51 | 1.6 | 4.8 | 0.00 | 0.00 | 0.00 | 57 | 1009.5 |
| 20260510044000 | 8 | 30 | 0.0 | 9.7 | 0.00 | 0.00 | 0.00 | 57 | 1009.4 |
| 20260510043500 | 8 | 55 | 3.2 | 9.7 | 0.00 | 0.00 | 0.00 | 57 | 1009.4 |
| 20260510042959 | 8 | 44 | 3.2 | 12.9 | 0.00 | 0.00 | 0.00 | 56 | 1009.2 |
| 20260510042459 | 9 | 28 | 1.6 | 12.9 | 0.00 | 0.00 | 0.00 | 56 | 1009.1 |
| 20260510041959 | 9 | 80 | 3.2 | 8.0 | 0.00 | 0.00 | 0.00 | 56 | 1009.0 |
| 20260510041459 | 9 | 86 | 3.2 | 9.7 | 0.00 | 0.00 | 0.00 | 57 | 1009.0 |
| 20260510040959 | 9 | 32 | 3.2 | 8.0 | 0.00 | 0.00 | 0.00 | 58 | 1008.9 |
| 20260510040459 | 9 | 20 | 1.6 | 6.4 | 0.00 | 0.00 | 0.00 | 59 | 1008.7 |
| 20260510040003 | 9 | 64 | 1.6 | 4.8 | 0.00 | 0.00 | 0.00 | 59 | 1008.5 |
| 20260510035459 | 9 | 180 | 1.6 | 4.8 | 0.00 | 0.00 | 0.00 | 60 | 1008.4 |
| 20260510034958 | 9 | 351 | 1.6 | 12.9 | 0.00 | 0.00 | 0.00 | 60 | 1008.4 |
| 20260510034459 | 9 | 266 | 1.6 | 12.9 | 0.00 | 0.00 | 0.00 | 61 | 1008.2 |
| 20260510033958 | 9 | 321 | 3.2 | 9.7 | 0.00 | 0.00 | 0.00 | 61 | 1008.1 |
| 20260510033459 | 9 | 284 | 3.2 | 8.0 | 0.00 | 0.00 | 0.00 | 62 | 1007.9 |
| 20260510032958 | 8 | 351 | 3.2 | 8.0 | 0.00 | 0.00 | 0.00 | 62 | 1007.9 |
| 20260510032458 | 8 | 323 | 1.6 | 8.0 | 0.00 | 0.00 | 0.00 | 62 | 1007.8 |
| 20260510031958 | 9 | 323 | 1.6 | 3.2 | 0.00 | 0.00 | 0.00 | 62 | 1007.9 |
| 20260510031458 | 9 | 295 | 1.6 | 3.2 | 0.00 | 0.00 | 0.00 | 62 | 1007.8 |
| 20260510030958 | 9 | 282 | 0.0 | 4.8 | 0.00 | 0.00 | 0.00 | 61 | 1007.8 |
| 20260510030458 | 9 | 300 | 0.0 | 4.8 | 0.00 | 0.00 | 0.00 | 61 | 1007.7 |
| 20260510030002 | 10 | 299 | 0.0 | 1.6 | 0.00 | 0.00 | 0.00 | 61 | 1007.7 |
| 20260510025459 | 10 | 282 | 0.0 | 3.2 | 0.00 | 0.00 | 0.00 | 60 | 1007.6 |
| 20260510024959 | 10 | 282 | 0.0 | 3.2 | 0.00 | 0.00 | 0.00 | 60 | 1007.5 |
| 20260510024459 | 10 | 301 | 0.0 | 3.2 | 0.00 | 0.00 | 0.00 | 60 | 1007.4 |
| 20260510024000 | 10 | 305 | 0.0 | 1.6 | 0.00 | 0.00 | 0.00 | 59 | 1007.4 |
| 20260510023459 | 10 | 305 | 0.0 | 4.8 | 0.00 | 0.00 | 0.00 | 58 | 1007.2 |
| 20260510022959 | 11 | 305 | 0.0 | 4.8 | 0.00 | 0.00 | 0.00 | 58 | 1007.2 |
| 20260510022459 | 11 | 276 | 0.0 | 1.6 | 0.00 | 0.00 | 0.00 | 57 | 1007.1 |
| 20260510021959 | 11 | 304 | 0.0 | 1.6 | 0.00 | 0.00 | 0.00 | 56 | 1007.0 |
| 20260510021458 | 11 | 304 | 0.0 | 1.6 | 0.00 | 0.00 | 0.00 | 55 | 1006.9 |
| 20260510020958 | 11 | 304 | 0.0 | 3.2 | 0.00 | 0.00 | 0.00 | 55 | 1006.8 |
| 20260510020459 | 12 | 304 | 0.0 | 3.2 | 0.00 | 0.00 | 0.00 | 55 | 1006.8 |
| 20260510012500 | 13 | 307 | 1.6 | 8.0 | 0.00 | 0.00 | 0.00 | 53 | 1006.1 |
| 20260510011959 | 13 | 305 | 1.6 | 16.1 | 0.00 | 0.00 | 0.00 | 53 | 1005.9 |
| 20260510011458 | 13 | 331 | 3.2 | 16.1 | 0.00 | 0.00 | 0.00 | 52 | 1005.6 |
| 20260510011000 | 13 | 282 | 4.8 | 9.7 | 0.00 | 0.00 | 0.00 | 52 | 1005.7 |
| 20260510010459 | 13 | 306 | 4.8 | 9.7 | 0.00 | 0.00 | 0.00 | 52 | 1005.5 |
| 20260510005959 | 13 | 323 | 4.8 | 8.0 | 0.00 | 0.00 | 0.00 | 51 | 1005.5 |
| 20260510005459 | 14 | 321 | 3.2 | 9.7 | 0.00 | 0.00 | 0.00 | 50 | 1005.3 |
| 20260510004959 | 14 | 334 | 3.2 | 9.7 | 0.00 | 0.00 | 0.00 | 50 | 1005.2 |
| 20260510004459 | 14 | 305 | 3.2 | 8.0 | 0.00 | 0.00 | 0.00 | 49 | 1005.2 |
| 20260510003959 | 14 | 297 | 3.2 | 19.3 | 0.00 | 0.00 | 0.00 | 49 | 1005.1 |
| 20260510003459 | 14 | 261 | 9.7 | 19.3 | 0.00 | 0.00 | 0.00 | 48 | 1005.0 |
| 20260510003000 | 15 | 320 | 6.4 | 19.3 | 0.00 | 0.00 | 0.00 | 48 | 1004.9 |
| 20260509235459 | 15 | 324 | 8.0 | 20.9 | 0.00 | 0.00 | 0.00 | 48 | 1004.2 |
| 20260509234959 | 15 | 271 | 8.0 | 20.9 | 0.00 | 0.00 | 0.00 | 47 | 1004.1 |
| 20260509234459 | 16 | 318 | 8.0 | 20.9 | 0.00 | 0.00 | 0.00 | 46 | 1004.1 |
| 20260509233958 | 16 | 276 | 8.0 | 20.9 | 0.00 | 0.00 | 0.00 | 45 | 1003.9 |
| 20260509233459 | 16 | 276 | 6.4 | 27.4 | 0.00 | 0.00 | 0.00 | 45 | 1003.8 |
| 20260509232959 | 16 | 330 | 8.0 | 27.4 | 0.00 | 0.00 | 0.00 | 44 | 1003.7 |
| 20260509232459 | 16 | 328 | 8.0 | 20.9 | 0.00 | 0.00 | 0.00 | 43 | 1003.7 |
| 20260509231959 | 16 | 255 | 4.8 | 24.1 | 0.00 | 0.00 | 0.00 | 43 | 1003.7 |
| 20260509231459 | 16 | 7 | 9.7 | 24.1 | 0.00 | 0.00 | 0.00 | 42 | 1003.6 |
| 20260509230959 | 16 | 316 | 9.7 | 22.5 | 0.00 | 0.00 | 0.00 | 41 | 1003.7 |
| 20260509230459 | 17 | 271 | 6.4 | 19.3 | 0.00 | 0.00 | 0.00 | 41 | 1003.5 |
| 20260509230001 | 17 | 291 | 9.7 | 29.0 | 0.00 | 0.00 | 0.00 | 40 | 1003.5 |
| 20260509225459 | 17 | 1 | 12.9 | 29.0 | 0.00 | 0.00 | 0.00 | 38 | 1003.3 |
| 20260509224958 | 17 | 297 | 6.4 | 22.5 | 0.00 | 0.00 | 0.00 | 39 | 1003.1 |
| 20260509224459 | 17 | 312 | 8.0 | 24.1 | 0.00 | 0.00 | 0.00 | 38 | 1003.0 |
| 20260509223958 | 17 | 236 | 6.4 | 24.1 | 0.00 | 0.00 | 0.00 | 39 | 1003.0 |
| 20260509223459 | 17 | 295 | 9.7 | 25.7 | 0.00 | 0.00 | 0.00 | 39 | 1002.9 |
| 20260509222959 | 18 | 266 | 12.9 | 25.7 | 0.00 | 0.00 | 0.00 | 37 | 1002.7 |
| 20260509222458 | 18 | 291 | 8.0 | 22.5 | 0.00 | 0.00 | 0.00 | 40 | 1002.5 |
| 20260509221958 | 18 | 259 | 4.8 | 22.5 | 0.00 | 0.00 | 0.00 | 39 | 1002.5 |
| 20260509221458 | 18 | 285 | 6.4 | 20.9 | 0.00 | 0.00 | 0.00 | 41 | 1002.3 |
| 20260509220958 | 18 | 303 | 9.7 | 20.9 | 0.00 | 0.00 | 0.00 | 40 | 1002.2 |
| 20260509220458 | 18 | 276 | 6.4 | 25.7 | 0.00 | 0.00 | 0.00 | 42 | 1002.2 |
| 20260509215959 | 18 | 313 | 6.4 | 25.7 | 0.00 | 0.00 | 0.00 | 41 | 1002.1 |
| 20260509215458 | 18 | 306 | 9.7 | 22.5 | 0.00 | 0.00 | 0.00 | 41 | 1002.1 |
| 20260509214959 | 19 | 314 | 6.4 | 17.7 | 0.00 | 0.00 | 0.00 | 41 | 1002.0 |
| 20260509214459 | 18 | 283 | 6.4 | 16.1 | 0.00 | 0.00 | 0.00 | 43 | 1001.9 |
| 20260509213959 | 19 | 328 | 6.4 | 17.7 | 0.00 | 0.00 | 0.00 | 41 | 1001.9 |
| 20260509213458 | 19 | 214 | 8.0 | 17.7 | 0.00 | 0.00 | 0.00 | 43 | 1001.7 |
| 20260509212959 | 19 | 271 | 6.4 | 19.3 | 0.00 | 0.00 | 0.00 | 42 | 1001.7 |
| 20260509212458 | 19 | 261 | 8.0 | 19.3 | 0.00 | 0.00 | 0.00 | 41 | 1001.8 |
| 20260509211959 | 19 | 295 | 3.2 | 19.3 | 0.00 | 0.00 | 0.00 | 42 | 1001.7 |
| 20260509211500 | 19 | 353 | 4.8 | 24.1 | 0.00 | 0.00 | 0.00 | 43 | 1001.7 |
| 20260509210959 | 19 | 201 | 6.4 | 19.3 | 0.00 | 0.00 | 0.00 | 43 | 1001.6 |
| 20260509210459 | 19 | 276 | 6.4 | 19.3 | 0.00 | 0.00 | 0.00 | 42 | 1001.7 |
| 20260509205958 | 19 | 350 | 8.0 | 19.3 | 0.00 | 0.00 | 0.00 | 41 | 1001.7 |
| 20260509205458 | 19 | 266 | 4.8 | 24.1 | 0.00 | 0.00 | 0.00 | 42 | 1001.6 |
| 20260509204959 | 18 | 247 | 9.7 | 24.1 | 0.00 | 0.00 | 0.00 | 41 | 1001.6 |
| 20260509204459 | 19 | 309 | 8.0 | 17.7 | 0.00 | 0.00 | 0.00 | 43 | 1001.7 |
| 20260509203959 | 19 | 242 | 6.4 | 22.5 | 0.00 | 0.00 | 0.00 | 42 | 1001.8 |
| 20260509203459 | 18 | 228 | 9.7 | 22.5 | 0.00 | 0.00 | 0.00 | 42 | 1001.7 |
| 20260509202959 | 18 | 240 | 6.4 | 24.1 | 0.00 | 0.00 | 0.00 | 43 | 1001.8 |
| 20260509202458 | 19 | 250 | 9.7 | 20.9 | 0.00 | 0.00 | 0.00 | 43 | 1001.8 |
| 20260509191959 | 17 | 284 | 9.7 | 20.9 | 0.00 | 0.00 | 0.00 | 48 | 1001.7 |
| 20260509191459 | 17 | 259 | 9.7 | 29.0 | 0.00 | 0.00 | 0.00 | 50 | 1001.7 |
| 20260509190959 | 17 | 271 | 8.0 | 25.7 | 0.00 | 0.00 | 0.00 | 51 | 1001.7 |
| 20260509190459 | 17 | 340 | 11.3 | 25.7 | 0.00 | 0.00 | 0.00 | 53 | 1001.7 |
| 20260509190000 | 17 | 288 | 12.9 | 22.5 | 0.00 | 0.00 | 0.00 | 53 | 1001.6 |
| 20260509185459 | 17 | 244 | 9.7 | 29.0 | 0.00 | 0.00 | 0.00 | 53 | 1001.6 |
| 20260509184958 | 17 | 188 | 9.7 | 24.1 | 0.00 | 0.00 | 0.00 | 55 | 1001.5 |
| 20260509184500 | 17 | 233 | 9.7 | 27.4 | 0.00 | 0.00 | 0.00 | 53 | 1001.6 |
| 20260509183958 | 17 | 266 | 11.3 | 27.4 | 0.00 | 0.00 | 0.00 | 53 | 1001.4 |
| 20260509183459 | 17 | 240 | 6.4 | 20.9 | 0.00 | 0.00 | 0.00 | 58 | 1001.2 |
| 20260509182958 | 17 | 226 | 9.7 | 27.4 | 0.00 | 0.00 | 0.00 | 54 | 1001.2 |
| 20260509182459 | 16 | 282 | 8.0 | 27.4 | 0.00 | 0.00 | 0.00 | 55 | 1001.1 |
| 20260509181959 | 16 | 198 | 12.9 | 37.0 | 0.00 | 0.00 | 0.00 | 53 | 1001.2 |
| 20260509181458 | 16 | 224 | 9.7 | 37.0 | 0.00 | 0.00 | 0.00 | 55 | 1001.4 |
| 20260509180959 | 16 | 239 | 6.4 | 19.3 | 0.00 | 0.00 | 0.00 | 57 | 1001.4 |
| 20260509180459 | 16 | 244 | 9.7 | 25.7 | 0.00 | 0.00 | 0.00 | 54 | 1001.3 |
| 20260509175957 | 16 | 227 | 6.4 | 20.9 | 0.00 | 0.00 | 0.00 | 58 | 1001.2 |
| 20260509175458 | 15 | 236 | 4.8 | 19.3 | 0.00 | 0.00 | 0.00 | 59 | 1001.2 |
| 20260509174957 | 15 | 213 | 6.4 | 19.3 | 0.00 | 0.00 | 0.00 | 59 | 1001.2 |
| 20260509170957 | 13 | 248 | 4.8 | 14.5 | 0.00 | 0.00 | 0.00 | 71 | 1002.4 |
| 20260509170457 | 13 | 225 | 3.2 | 12.9 | 0.00 | 0.00 | 0.00 | 70 | 1002.5 |
| 20260509170001 | 13 | 244 | 4.8 | 12.9 | 0.00 | 0.00 | 0.00 | 69 | 1002.7 |
| 20260509165459 | 13 | 321 | 1.6 | 9.7 | 0.00 | 0.00 | 0.00 | 68 | 1002.6 |
| 20260509164959 | 13 | 295 | 3.2 | 9.7 | 0.00 | 0.00 | 0.00 | 66 | 1002.6 |
| 20260509164458 | 13 | 251 | 4.8 | 17.7 | 0.00 | 0.00 | 0.00 | 66 | 1002.6 |
| 20260509163959 | 13 | 289 | 6.4 | 17.7 | 0.00 | 0.00 | 0.00 | 66 | 1002.6 |
| 20260509163459 | 13 | 354 | 8.0 | 17.7 | 0.00 | 0.00 | 0.00 | 66 | 1002.6 |
| 20260509162958 | 13 | 297 | 8.0 | 16.1 | 0.00 | 0.00 | 0.00 | 65 | 1002.6 |
| 20260509162459 | 14 | 298 | 3.2 | 20.9 | 0.00 | 0.00 | 0.00 | 68 | 1002.6 |
| 20260509161958 | 13 | 311 | 6.4 | 20.9 | 0.00 | 0.00 | 0.00 | 67 | 1002.6 |
| 20260509161458 | 14 | 356 | 8.0 | 20.9 | 0.00 | 0.00 | 0.00 | 67 | 1002.5 |
| 20260509160958 | 14 | 305 | 8.0 | 19.3 | 0.00 | 0.00 | 0.00 | 66 | 1002.4 |
| 20260509160459 | 14 | 311 | 8.0 | 19.3 | 0.00 | 0.00 | 0.00 | 67 | 1002.1 |
| 20260509160000 | 15 | 240 | 8.0 | 19.3 | 0.00 | 0.00 | 0.00 | 68 | 1001.9 |
| 20260509155458 | 15 | 325 | 4.8 | 19.3 | 0.00 | 0.00 | 0.00 | 68 | 1001.9 |
| 20260509154958 | 15 | 251 | 8.0 | 24.1 | 0.00 | 0.00 | 0.00 | 66 | 1001.8 |
| 20260509154458 | 15 | 331 | 9.7 | 24.1 | 0.00 | 0.00 | 0.00 | 67 | 1001.7 |
| 20260509153959 | 16 | 242 | 9.7 | 25.7 | 0.00 | 0.00 | 0.00 | 67 | 1001.6 |
| 20260509153458 | 16 | 37 | 8.0 | 25.7 | 0.00 | 0.00 | 0.00 | 66 | 1001.3 |
| 20260509152959 | 17 | 309 | 9.7 | 22.5 | 0.00 | 0.00 | 0.00 | 64 | 1001.1 |
| 20260509152459 | 17 | 224 | 9.7 | 22.5 | 0.00 | 0.00 | 0.00 | 63 | 1000.7 |
| 20260509151958 | 18 | 283 | 8.0 | 19.3 | 0.00 | 0.00 | 0.00 | 63 | 1000.6 |
| 20260509151459 | 17 | 257 | 6.4 | 30.6 | 0.00 | 0.00 | 0.00 | 66 | 1000.5 |
| 20260509150959 | 17 | 307 | 9.7 | 30.6 | 0.00 | 0.00 | 0.00 | 66 | 1000.5 |
| 20260509150459 | 17 | 271 | 9.7 | 24.1 | 0.00 | 0.00 | 0.00 | 64 | 1000.2 |
| 20260509145959 | 17 | 221 | 6.4 | 24.1 | 0.00 | 0.00 | 0.00 | 67 | 1000.1 |
| 20260509145459 | 16 | 190 | 6.4 | 24.1 | 0.00 | 0.00 | 0.00 | 66 | 1000.3 |
| 20260509144959 | 17 | 305 | 8.0 | 16.1 | 0.00 | 0.00 | 0.00 | 65 | 1000.1 |
| 20260509144458 | 16 | 321 | 8.0 | 17.7 | 0.00 | 0.00 | 0.00 | 65 | 1000.1 |
| 20260509143958 | 17 | 301 | 6.4 | 17.7 | 0.00 | 0.00 | 0.00 | 65 | 1000.3 |
| 20260509143459 | 17 | 259 | 6.4 | 27.4 | 0.00 | 0.00 | 0.00 | 68 | 1000.2 |
| 20260509142958 | 17 | 218 | 6.4 | 27.4 | 0.00 | 0.00 | 0.00 | 66 | 1000.0 |
| 20260509142459 | 17 | 241 | 11.3 | 25.7 | 0.00 | 0.00 | 0.00 | 66 | 1000.0 |
| 20260509141958 | 17 | 217 | 12.9 | 25.7 | 0.00 | 0.00 | 0.00 | 68 | 1000.0 |
| 20260509141459 | 17 | 199 | 12.9 | 29.0 | 0.00 | 0.00 | 0.00 | 67 | 1000.1 |
| 20260509140959 | 17 | 249 | 11.3 | 29.0 | 0.00 | 0.00 | 0.00 | 69 | 1000.1 |
| 20260509140459 | 16 | 266 | 11.3 | 27.4 | 0.00 | 0.00 | 0.00 | 69 | 1000.0 |
| 20260509135959 | 16 | 288 | 11.3 | 33.8 | 0.00 | 0.00 | 0.00 | 69 | 999.9 |
| 20260509135500 | 16 | 227 | 12.9 | 33.8 | 0.00 | 0.00 | 0.00 | 70 | 1000.0 |
| 20260509135001 | 16 | 262 | 14.5 | 32.2 | 0.00 | 0.00 | 0.00 | 69 | 999.9 |
| 20260509134459 | 16 | 220 | 11.3 | 19.3 | 0.00 | 0.00 | 0.00 | 69 | 1000.1 |
| 20260509133959 | 16 | 314 | 6.4 | 25.7 | 0.00 | 0.00 | 0.00 | 71 | 1000.1 |
| 20260509133459 | 16 | 188 | 14.5 | 27.4 | 0.00 | 0.00 | 0.00 | 70 | 1000.0 |
| 20260509132959 | 16 | 211 | 12.9 | 27.4 | 0.00 | 0.00 | 0.00 | 70 | 1000.3 |
| 20260509132500 | 16 | 246 | 11.3 | 27.4 | 0.00 | 0.00 | 0.00 | 70 | 1000.0 |
| 20260509131959 | 15 | 213 | 11.3 | 19.3 | 0.00 | 0.00 | 0.00 | 70 | 1000.1 |
| 20260509131459 | 15 | 249 | 8.0 | 17.7 | 0.00 | 0.00 | 0.00 | 72 | 1000.2 |
| 20260509130958 | 15 | 201 | 8.0 | 16.1 | 0.00 | 0.00 | 0.00 | 72 | 1000.1 |
| 20260509130459 | 15 | 271 | 4.8 | 14.5 | 0.00 | 0.00 | 0.00 | 73 | 1000.2 |
| 20260509130000 | 14 | 266 | 4.8 | 17.7 | 0.00 | 0.00 | 0.00 | 75 | 1000.3 |
| 20260509125459 | 13 | 237 | 6.4 | 19.3 | 0.00 | 0.00 | 0.00 | 75 | 1000.2 |
| 20260509124959 | 13 | 223 | 8.0 | 19.3 | 0.00 | 0.00 | 0.00 | 76 | 1000.2 |
| 20260509124459 | 13 | 206 | 6.4 | 16.1 | 0.00 | 0.00 | 0.00 | 78 | 1000.4 |
| 20260509123959 | 13 | 222 | 8.0 | 16.1 | 0.00 | 0.00 | 0.00 | 80 | 1000.5 |
| 20260509123459 | 12 | 244 | 8.0 | 17.7 | 0.00 | 0.00 | 0.00 | 81 | 1000.6 |
| 20260509122958 | 12 | 212 | 8.0 | 17.7 | 0.00 | 0.00 | 0.00 | 82 | 1000.8 |
| 20260509122459 | 12 | 174 | 6.4 | 17.7 | 0.00 | 0.00 | 0.00 | 83 | 1000.8 |
| 20260509121959 | 12 | 232 | 6.4 | 17.7 | 0.00 | 0.00 | 0.00 | 83 | 1000.8 |
| 20260509121459 | 12 | 227 | 6.4 | 16.1 | 0.00 | 0.00 | 0.00 | 83 | 1000.9 |
| 20260509121000 | 11 | 238 | 6.4 | 14.5 | 0.00 | 0.00 | 0.00 | 83 | 1000.8 |
| 20260509120459 | 11 | 229 | 4.8 | 14.5 | 0.00 | 0.00 | 0.00 | 84 | 1000.5 |
| 20260509115958 | 11 | 242 | 6.4 | 14.5 | 0.00 | 0.00 | 0.00 | 84 | 1000.5 |
| 20260509115459 | 11 | 292 | 6.4 | 14.5 | 0.00 | 0.00 | 0.00 | 84 | 1000.5 |
| 20260509114958 | 11 | 190 | 4.8 | 9.7 | 0.00 | 0.00 | 0.00 | 84 | 1000.5 |
| 20260509114459 | 11 | 207 | 4.8 | 12.9 | 0.00 | 0.00 | 0.00 | 84 | 1000.5 |
| 20260509113958 | 11 | 221 | 4.8 | 14.5 | 0.00 | 0.00 | 0.00 | 85 | 1000.7 |
| 20260509113459 | 11 | 205 | 6.4 | 12.9 | 0.00 | 0.00 | 0.00 | 85 | 1000.7 |
| 20260509112959 | 11 | 209 | 4.8 | 12.9 | 0.00 | 0.00 | 0.00 | 85 | 1000.8 |
| 20260509112459 | 11 | 164 | 4.8 | 12.9 | 0.00 | 0.00 | 0.00 | 85 | 1000.7 |
| 20260509111959 | 11 | 208 | 4.8 | 12.9 | 0.00 | 0.00 | 0.00 | 85 | 1000.7 |
| 20260509111459 | 11 | 235 | 3.2 | 14.5 | 0.00 | 0.00 | 0.00 | 85 | 1000.8 |
| 20260509110958 | 11 | 227 | 4.8 | 16.1 | 0.00 | 0.00 | 0.00 | 85 | 1000.8 |
| 20260509110459 | 11 | 229 | 8.0 | 16.1 | 0.00 | 0.00 | 0.00 | 85 | 1000.8 |
| 20260509110002 | 11 | 235 | 4.8 | 14.5 | 0.00 | 0.00 | 0.00 | 85 | 1000.7 |
| 20260509105459 | 11 | 218 | 8.0 | 14.5 | 0.00 | 0.00 | 0.00 | 85 | 1000.7 |
| 20260509104958 | 11 | 171 | 4.8 | 12.9 | 0.00 | 0.00 | 0.00 | 85 | 1000.6 |
| 20260509104458 | 11 | 172 | 4.8 | 12.9 | 0.00 | 0.00 | 0.00 | 85 | 1000.8 |
| 20260509103959 | 10 | 266 | 4.8 | 12.9 | 0.00 | 0.00 | 0.00 | 85 | 1000.8 |
| 20260509103459 | 10 | 258 | 3.2 | 16.1 | 0.00 | 0.00 | 0.00 | 85 | 1000.9 |
| 20260509102959 | 10 | 249 | 3.2 | 14.5 | 0.00 | 0.00 | 0.00 | 85 | 1001.0 |
| 20260509102459 | 10 | 251 | 6.4 | 14.5 | 0.00 | 0.00 | 0.00 | 85 | 1001.1 |
| 20260509101959 | 10 | 216 | 4.8 | 9.7 | 0.00 | 0.00 | 0.00 | 85 | 1001.2 |
| 20260509101459 | 10 | 207 | 4.8 | 11.3 | 0.00 | 0.00 | 0.00 | 85 | 1001.2 |
| 20260509100959 | 10 | 168 | 4.8 | 14.5 | 0.00 | 0.00 | 0.00 | 84 | 1001.1 |
| 20260509100500 | 10 | 234 | 4.8 | 9.7 | 0.00 | 0.00 | 0.00 | 84 | 1001.2 |
| 20260509100000 | 10 | 216 | 3.2 | 9.7 | 0.00 | 0.00 | 0.00 | 84 | 1001.3 |
| 20260509095458 | 10 | 201 | 4.8 | 9.7 | 0.00 | 0.00 | 0.00 | 84 | 1001.3 |
| 20260509094959 | 10 | 200 | 6.4 | 9.7 | 0.00 | 0.00 | 0.00 | 83 | 1001.4 |
| 20260509094458 | 10 | 266 | 6.4 | 9.7 | 0.00 | 0.00 | 0.00 | 83 | 1001.4 |
| 20260509083500 | 10 | 243 | 1.6 | 12.9 | 0.00 | 0.00 | 0.00 | 78 | 1001.9 |
| 20260509082958 | 10 | 192 | 3.2 | 11.3 | 0.00 | 0.00 | 0.00 | 78 | 1002.0 |
| 20260509082458 | 10 | 239 | 4.8 | 9.7 | 0.00 | 0.00 | 0.00 | 77 | 1002.1 |
| 20260509081958 | 10 | 159 | 4.8 | 11.3 | 0.00 | 0.00 | 0.00 | 76 | 1002.1 |
| 20260509081459 | 10 | 171 | 4.8 | 8.0 | 0.00 | 0.00 | 0.00 | 75 | 1002.1 |
| 20260509080958 | 10 | 207 | 3.2 | 11.3 | 0.00 | 0.00 | 0.00 | 74 | 1002.1 |
| 20260509073459 | 10 | 217 | 3.2 | 6.4 | 0.00 | 0.00 | 0.00 | 66 | 1002.6 |
| 20260509072959 | 10 | 220 | 4.8 | 11.3 | 0.00 | 0.00 | 0.00 | 65 | 1002.6 |
| 20260509072459 | 10 | 203 | 1.6 | 12.9 | 0.00 | 0.00 | 0.00 | 63 | 1002.6 |
| 20260509071959 | 10 | 241 | 4.8 | 12.9 | 0.00 | 0.00 | 0.00 | 62 | 1002.7 |
| 20260509071458 | 11 | 219 | 1.6 | 14.5 | 0.00 | 0.00 | 0.00 | 61 | 1002.8 |
| 20260509070958 | 11 | 276 | 6.4 | 14.5 | 0.00 | 0.00 | 0.00 | 61 | 1002.7 |
| 20260509070458 | 11 | 221 | 6.4 | 12.9 | 0.00 | 0.00 | 0.00 | 61 | 1002.7 |
| 20260509065958 | 11 | 209 | 1.6 | 12.9 | 0.00 | 0.00 | 0.00 | 60 | 1002.8 |
| 20260509065458 | 11 | 201 | 4.8 | 12.9 | 0.00 | 0.00 | 0.00 | 59 | 1002.7 |
| 20260509064958 | 11 | 209 | 4.8 | 12.9 | 0.00 | 0.00 | 0.00 | 58 | 1002.9 |
| 20260509064458 | 11 | 266 | 4.8 | 12.9 | 0.00 | 0.00 | 0.00 | 56 | 1002.9 |
| 20260509063958 | 11 | 244 | 1.6 | 11.3 | 0.00 | 0.00 | 0.00 | 53 | 1003.0 |
| 20260509063459 | 11 | 247 | 3.2 | 11.3 | 0.00 | 0.00 | 0.00 | 51 | 1003.1 |
| 20260509062959 | 10 | 253 | 4.8 | 9.7 | 0.00 | 0.00 | 0.00 | 48 | 1003.1 |
| 20260509062458 | 10 | 146 | 4.8 | 14.5 | 0.00 | 0.00 | 0.00 | 45 | 1003.1 |